Time,B instrument,Bx,By,Bz,sigma B,Ion instrument,Status,Tp_par,Tp_perp,carrot,r_sun,clat,clong,earth_he_angle,n_p,vp_x,vp_y,vp_z,vth_p_par,vth_p_perp
1980-06-19 00:00:36,1,3.69167,1.93333,-2.6,0.441195,1,1,43000.4,38443.0,1696,0.51825058,7.065052,312.09341,90.105133,42.6904,332.351,-1.85897,17.4933,26.6437,25.1922
1980-06-19 00:01:17,1,3.33,1.75,-4.78,1.09279,1,1,40334.8,38209.1,1696,0.51825953,7.0650053,312.0867,90.106216,42.7354,331.292,-2.45801,17.2127,25.8046,25.1155
1980-06-19 00:01:57,1,2.90909,1.51818,-4.68182,0.327777,1,1,41471.2,35567.3,1696,0.51825953,7.0650053,312.08279,90.106216,41.7579,332.888,0.454362,19.419,26.1656,24.2317
1980-06-19 00:02:38,1,3.16364,1.59091,-4.57273,0.194554,1,1,37645.2,39851.3,1696,0.51826847,7.0649586,312.07605,90.1073,41.7489,331.495,-1.34532,19.4622,24.9294,25.6495
1980-06-19 00:03:18,1,3.08182,1.57273,-4.93636,0.213975,1,1,41072.0,36856.5,1696,0.51827735,7.0649118,312.06934,90.108383,42.5334,332.878,0.23759,18.7273,26.0394,24.6669
1980-06-19 00:03:59,1,2.48333,1.3,-4.46667,0.286259,1,1,41172.4,40594.5,1696,0.51827741,7.0649118,312.06543,90.108383,42.6231,331.229,-0.438478,18.8927,26.0712,25.8876
1980-06-19 00:04:39,1,2.36364,1.2,-4.39091,0.80196,1,1,40740.8,37280.6,1696,0.51828629,7.0648651,312.05869,90.109467,40.8875,332.479,1.34649,19.6284,25.9342,24.8084
1980-06-19 00:05:20,1,2.975,2.84167,-2.59167,0.395899,1,1,47878.6,41457.4,1696,0.51829523,7.0648184,312.05588,90.11055,42.9168,331.286,-2.6508,17.6995,28.1144,26.1613
1980-06-19 00:06:00,1,2.69167,2.93333,-2.40833,0.300694,1,1,45405.8,37625.1,1696,0.51830417,7.0647717,312.04913,90.111633,42.2772,330.868,-1.9883,18.3323,27.3787,24.9228
1980-06-19 00:06:41,1,2.51818,3.00909,-2.35455,0.297371,1,1,49764.9,39090.1,1696,0.51830417,7.0647717,312.04523,90.111633,43.007,331.352,-2.36152,17.3029,28.6629,25.4034
1980-06-19 00:07:21,1,2.54545,2.82727,-2.5,0.24663,1,1,48393.1,40207.6,1696,0.51831311,7.0647249,312.03851,90.112717,42.5877,332.309,-2.20327,16.7167,28.265,25.7639
1980-06-19 00:08:02,1,2.51818,2.89091,-2.64545,0.323718,1,1,50928.2,40804.7,1696,0.51832205,7.0646782,312.03177,90.1138,43.1672,331.702,-3.27946,16.1182,28.9959,25.9545
1980-06-19 00:08:42,1,2.4,2.79091,-2.20909,0.399793,1,1,49157.5,40318.6,1696,0.51832205,7.0646782,312.02786,90.1138,43.4573,331.666,-1.64934,16.2641,28.4874,25.7995
1980-06-19 00:09:23,1,2.16364,2.32727,-2.60909,0.592097,1,1,58386.2,44433.5,1696,0.51833099,7.0646324,312.02115,90.114883,43.498,333.506,-2.0294,15.4681,31.0465,27.084
1980-06-19 00:10:03,1,2.61667,2.11667,-2.93333,0.343996,1,1,49130.4,41948.9,1696,0.51833993,7.0645857,312.01831,90.115967,43.7786,335.218,-1.26815,14.8058,28.4795,26.3159
1980-06-19 00:10:44,1,3.0,3.1,-3.3,0.382971,1,1,48640.0,43164.9,1696,0.51833993,7.0645857,312.0105,90.115967,44.8679,337.885,0.795036,13.4379,28.337,26.6946
1980-06-19 00:11:24,1,3.55,2.8,-3.33333,0.244381,1,1,44274.8,42784.5,1696,0.51834887,7.064539,312.00378,90.11705,44.0122,337.15,0.440195,13.4461,27.0356,26.5767
1980-06-19 00:12:05,1,2.47273,1.75455,-3.55455,0.822212,1,1,48064.0,43812.9,1696,0.51835781,7.0644922,312.00095,90.118134,44.2319,335.442,0.467738,15.3356,28.1688,26.8942
1980-06-19 00:12:45,1,2.79091,2.34545,-3.3,0.199172,1,1,44126.8,40330.0,1696,0.51835781,7.0644922,311.99313,90.118134,44.0962,340.224,2.79382,14.6629,26.9904,25.8031
1980-06-19 00:13:26,1,2.55,2.45,-3.06667,0.430762,1,1,47772.1,43150.1,1696,0.51836675,7.0644455,311.99033,90.119217,46.5654,338.739,2.71975,14.9972,28.0831,26.69
1980-06-19 00:14:06,1,2.55,2.6,-2.9,0.500833,1,1,46137.8,39374.3,1696,0.51837569,7.0643988,311.98358,90.1203,45.7839,338.967,0.459066,14.1357,27.5985,25.4956
1980-06-19 00:14:47,1,3.10833,1.64167,-4.43333,0.311582,1,1,38828.0,41336.8,1696,0.51837569,7.0643988,311.97577,90.1203,43.415,337.113,2.32334,17.7789,25.3181,26.1232
1980-06-19 00:15:27,1,3.05455,1.56364,-4.64545,0.27634,1,1,37532.7,36194.9,1696,0.51838464,7.064352,311.97296,90.121399,41.7558,336.452,2.28472,16.0617,24.8922,24.4445
1980-06-19 00:16:08,1,3.13333,1.58333,-4.3,0.252212,1,1,39516.9,41629.9,1696,0.51839358,7.0643053,311.96625,90.122482,44.3965,337.55,2.54795,16.2226,25.5417,26.2157
1980-06-19 00:16:48,1,3.2,1.6,-4.20909,0.178145,1,1,36107.4,35654.8,1696,0.51839358,7.0643053,311.96234,90.122482,42.7896,337.619,2.16611,16.4835,24.415,24.2615
1980-06-19 00:17:29,1,3.28182,1.9,-3.95455,0.443502,1,1,40910.6,39853.0,1696,0.51840252,7.0642595,311.9556,90.123566,44.3099,336.279,2.53374,16.3809,25.9882,25.6501
1980-06-19 00:18:09,1,3.53333,2.23333,-3.85833,0.56587,1,1,38766.2,37607.3,1696,0.51841146,7.0642128,311.95279,90.124649,43.5013,336.015,3.56992,18.2073,25.2979,24.9169
1980-06-19 00:18:50,1,3.17273,2.51818,-3.66364,0.422507,1,1,43208.7,39685.2,1696,0.51841146,7.0642128,311.94498,90.124649,45.2102,337.086,0.874283,17.2127,26.7081,25.596
1980-06-19 00:19:30,1,3.10833,2.4,-3.36667,0.315678,1,1,33408.3,35234.8,1696,0.5184204,7.0641661,311.93823,90.125732,41.9351,339.834,0.0743744,13.6963,23.4847,24.1181
1980-06-19 00:20:11,1,2.37273,2.32727,-2.79091,0.494766,1,1,42625.7,45099.0,1696,0.51842934,7.0641193,311.93542,90.126816,45.3368,341.046,-0.0477592,12.145,26.5273,27.2861
1980-06-19 00:20:51,1,2.49167,4.075,-2.04167,0.598668,1,1,40064.2,37341.7,1696,0.51842934,7.0641193,311.92761,90.126816,42.7473,341.717,-0.729978,11.631,25.7179,24.8287
1980-06-19 00:21:32,1,2.42727,4.21818,-2.32727,0.428528,1,1,43640.2,40440.0,1696,0.51843828,7.0640726,311.92477,90.127899,44.1588,340.959,0.828325,11.5277,26.8412,25.8383
1980-06-19 00:22:12,1,1.95,3.475,-2.05833,1.20075,1,1,41945.7,40550.4,1696,0.51844722,7.0640259,311.91806,90.128983,43.6578,341.986,0.970164,12.8122,26.3149,25.8735
1980-06-19 00:22:53,1,0.75,-0.441667,-3.36667,0.653569,1,1,47656.1,48640.0,1696,0.51844722,7.0640259,311.91025,90.128983,45.7392,340.602,-1.18517,13.3105,28.049,28.337
1980-06-19 00:23:33,1,1.28333,2.35,-1.9,1.41735,1,1,51557.4,42813.2,1696,0.51845616,7.0639791,311.90741,90.130066,44.7428,341.108,2.52917,14.3028,29.1745,26.5856
1980-06-19 00:24:14,1,1.76364,3.85455,-1.38182,1.1548,1,1,49781.5,44090.7,1696,0.5184651,7.0639324,311.9007,90.131149,42.9531,338.664,2.34344,15.4312,28.6676,26.9793
1980-06-19 00:24:54,1,2.15833,0.683333,-4.125,0.832082,1,1,46609.9,43975.1,1696,0.5184651,7.0639324,311.89679,90.131149,43.3579,342.487,-1.21556,11.6904,27.7394,26.944
1980-06-19 00:25:35,1,1.70833,2.36667,-2.86667,0.973075,1,1,54771.6,52297.0,1696,0.51847404,7.0638857,311.89005,90.132233,46.0189,344.279,-1.54393,10.0264,30.0701,29.383
1980-06-19 00:26:15,1,2.325,-0.258333,-3.75833,1.29102,1,1,49505.9,46328.2,1696,0.51848298,7.0638399,311.88333,90.133316,43.4941,344.169,-3.23328,8.34491,28.5882,27.6555
1980-06-19 00:26:56,1,3.25833,1.925,-3.40833,0.58029,1,1,57875.9,48417.7,1696,0.51848298,7.0638399,311.87943,90.133316,45.7446,345.067,-2.87821,9.57853,30.9106,28.2722
1980-06-19 00:27:36,1,2.33333,3.29167,-2.05833,0.631467,1,1,54196.1,46232.4,1696,0.51849192,7.0637932,311.87268,90.134399,42.9885,346.004,-2.59937,7.3107,29.9118,27.6268
1980-06-19 00:28:17,1,1.81667,3.425,-0.966667,0.768431,1,1,60560.7,50437.4,1696,0.51850086,7.0637465,311.86987,90.135483,45.696,345.018,-1.73817,10.7272,31.6194,28.8559
1980-06-19 00:28:57,1,2.11667,2.475,-3.23333,0.851755,1,1,63109.0,47779.0,1696,0.51850086,7.0637465,311.86206,90.135483,44.7677,344.718,-3.58679,10.2813,32.2778,28.0851
1980-06-19 00:29:38,1,2.55833,3.06667,-2.43333,0.311247,1,1,59353.8,49680.9,1696,0.51850981,7.0636997,311.85922,90.136566,46.1854,346.126,-2.24027,10.2551,31.3027,28.6387
1980-06-19 00:30:18,1,2.56923,3.06154,-2.36154,0.331573,1,1,55577.3,48278.8,1696,0.51851875,7.063653,311.85251,90.137665,45.0644,345.075,-1.38709,10.2716,30.2905,28.2317
1980-06-19 00:30:59,1,2.70909,3.17273,-2.39091,0.26968,1,1,55271.2,50868.2,1696,0.51851875,7.063653,311.8447,90.137665,46.5527,344.414,-2.65116,10.5535,30.207,28.9788
1980-06-19 00:31:39,1,2.71667,3.175,-3.05833,0.723898,1,1,56986.5,47703.9,1696,0.51852769,7.0636063,311.84189,90.138748,45.4596,344.878,-1.83744,11.2819,30.6721,28.0631
1980-06-19 00:32:20,1,1.9,2.99091,-2.64545,0.732143,1,1,57648.8,50235.3,1696,0.51853657,7.0635595,311.83514,90.139832,45.3753,344.777,-1.71026,12.1057,30.8498,28.798
1980-06-19 00:33:00,1,0.391667,3.75833,-0.8,0.771272,1,1,52275.5,52670.3,1696,0.51854551,7.0635128,311.83234,90.140915,44.5437,344.618,-3.01777,11.2944,29.377,29.4877
1980-06-19 00:33:41,1,0.483333,2.91667,-1.25,0.628711,1,1,62205.6,55109.3,1696,0.51854557,7.0635128,311.82452,90.140915,46.4014,344.616,-2.27046,12.3444,32.0459,30.1627
1980-06-19 00:34:21,1,1.48462,2.40769,-2.59231,0.756276,1,1,55110.5,51652.2,1696,0.51855445,7.063467,311.81778,90.141998,44.8829,344.637,-1.97205,11.908,30.163,29.2013
1980-06-19 00:35:02,1,1.6,2.35833,-2.03333,0.763535,1,1,59042.6,53464.3,1696,0.51856339,7.0634203,311.81497,90.143082,46.2193,343.836,-3.05813,10.7489,31.2206,29.7091
1980-06-19 00:35:42,1,0.969231,1.74615,-2.42308,0.507109,1,1,58917.5,53688.6,1696,0.51856339,7.0634203,311.80716,90.143082,46.1029,345.533,-3.22625,11.369,31.1875,29.7714
1980-06-19 00:36:23,1,1.27273,1.66364,-2.39091,0.485832,1,1,59905.4,58411.2,1696,0.51857233,7.0633736,311.80432,90.144165,45.4793,345.03,-4.03956,10.8309,31.4478,31.0532
1980-06-19 00:37:03,1,1.375,1.975,-1.9,0.410792,1,1,63081.1,54616.0,1696,0.51858127,7.0633268,311.79761,90.145248,46.6514,345.224,-3.85681,12.0999,32.2706,30.0274
1980-06-19 00:37:44,1,1.13636,2.00909,-1.84545,0.493763,1,1,60592.7,58347.9,1696,0.51858127,7.0633268,311.78979,90.145248,46.5024,343.556,-4.02074,11.6828,31.6277,31.0363
1980-06-19 00:38:24,1,0.808333,1.84167,-1.55,0.398783,1,1,59068.2,53815.6,1696,0.51859021,7.0632801,311.78696,90.146332,45.8215,344.764,-3.41412,11.8444,31.2273,29.8066
1980-06-19 00:39:05,1,4.62593e-18,2.33333,-1.53333,1.08679,1,1,63091.1,53166.1,1696,0.51859915,7.0632334,311.78024,90.147415,45.0379,345.623,-4.33744,11.2369,32.2732,29.6262
1980-06-19 00:39:45,1,-0.676923,2.2,-1.66923,0.587745,1,1,57824.1,58472.9,1696,0.51859915,7.0632334,311.77634,90.147415,45.9609,344.296,-4.50575,11.939,30.8967,31.0696
1980-06-19 00:40:26,1,-0.333333,2.3,-1.34167,0.473976,1,1,60508.6,58517.9,1696,0.51860809,7.0631866,311.76959,90.148499,47.2521,344.81,-3.42023,11.8324,31.6058,31.0815
1980-06-19 00:41:06,1,-1.21667,2.75833,-1.03333,0.361997,1,1,56612.7,55914.3,1696,0.51861703,7.0631399,311.76678,90.149582,45.4546,345.923,-3.24398,11.169,30.5714,30.3822
1980-06-19 00:41:47,1,-1.85037e-17,2.49167,-1.325,0.80476,1,1,60737.7,55984.1,1696,0.51861703,7.0631399,311.75897,90.149582,47.3049,345.587,-4.98098,11.4785,31.6655,30.4012
1980-06-19 00:42:27,1,-0.2,2.24167,-1.78333,0.726053,1,1,60957.2,55387.3,1696,0.51862597,7.0630932,311.75223,90.150665,47.1546,343.924,-4.65242,12.0407,31.7227,30.2387
1980-06-19 00:43:08,1,-2.11667,2.65,-0.333333,1.33458,1,1,57866.5,57686.1,1696,0.51863492,7.0630474,311.74942,90.151749,45.5606,344.93,-3.57095,10.9988,30.908,30.8598
1980-06-19 00:43:48,1,-3.425,3.43333,-0.125,0.423445,1,1,56048.9,53635.2,1696,0.51863492,7.0630474,311.74161,90.151749,46.9042,345.081,-5.53581,11.1222,30.4187,29.7566
1980-06-19 00:44:29,1,-3.7,3.13333,0.0416667,0.326067,1,1,57210.7,54639.8,1696,0.51864386,7.0630007,311.73877,90.152832,46.9877,345.261,-5.92962,11.7586,30.7324,30.0339
1980-06-19 00:45:09,1,-3.91667,3.00833,0.0916667,0.276134,1,1,51926.7,55340.4,1696,0.5186528,7.0629539,311.73206,90.153931,46.1073,345.492,-6.51648,11.3971,29.2788,30.2259
1980-06-19 00:45:50,1,-2.54167,2.825,-0.3,0.819129,1,1,54043.6,59540.6,1696,0.5186528,7.0629539,311.72424,90.153931,46.7381,344.707,-7.16481,11.6054,29.8697,31.3519
1980-06-19 00:46:30,1,-1.10769,2.79231,-0.553846,0.729107,1,1,58175.3,59133.7,1696,0.51866174,7.0629072,311.72144,90.155014,46.6336,345.517,-6.50045,11.1675,30.9904,31.2446
1980-06-19 00:47:11,1,-0.907692,3.28462,-0.184615,0.550739,1,1,64634.8,59446.0,1696,0.51867068,7.0628605,311.71469,90.156097,47.7321,344.353,-6.89043,10.3834,32.6656,31.327
1980-06-19 00:47:51,1,-3.15833,3.55,-0.933333,0.589197,1,1,56593.0,60720.9,1696,0.51867068,7.0628605,311.71078,90.156097,47.0576,344.419,-6.84554,10.8531,30.566,31.6612
1980-06-19 00:48:32,1,-4.56154,3.87692,-0.115385,0.707692,1,1,59627.5,60819.3,1696,0.51867962,7.0628138,311.70407,90.157181,46.5751,343.488,-6.42636,11.7444,31.3748,31.6868
1980-06-19 00:49:12,1,-5.26667,4.43333,0.133333,0.223607,1,1,56113.2,57968.6,1696,0.51868856,7.062767,311.69733,90.158264,43.7973,343.589,-4.83085,11.9035,30.4362,30.9353
1980-06-19 00:49:53,1,-5.175,4.225,0.233333,0.328084,1,1,57108.6,60894.0,1696,0.51868856,7.062767,311.69342,90.158264,44.866,342.554,-6.37631,11.4581,30.705,31.7063
1980-06-19 00:50:33,1,-4.91538,3.66154,0.1,0.440951,1,1,57812.8,60435.4,1696,0.5186975,7.0627203,311.68671,90.159348,45.6625,343.972,-5.76121,11.4977,30.8937,31.5866
1980-06-19 00:51:14,1,-4.89167,4.15,0.1,0.499931,1,1,54485.0,63746.4,1696,0.51870644,7.0626745,311.68387,90.160431,44.5697,343.579,-5.19572,11.7547,29.9914,32.4404
1980-06-19 00:51:54,1,-4.8,3.65,-0.166667,1.19919,1,1,54194.5,65090.5,1696,0.51870644,7.0626736,311.67606,90.160431,45.327,345.004,-6.64743,11.4034,29.9113,32.7806
1980-06-19 00:52:35,1,-4.33333,3.30833,0.0916667,0.480017,1,1,57317.2,62364.6,1696,0.51871538,7.0626278,311.66934,90.161514,44.919,343.101,-5.01435,12.109,30.761,32.0868
1980-06-19 00:53:15,1,-4.63333,3.5,0.0333333,0.427525,1,1,54610.6,62527.9,1696,0.51872432,7.0625811,311.6665,90.162598,43.9712,341.76,-4.07928,12.3114,30.0259,32.1288
1980-06-19 00:53:56,1,-5.13333,4.175,-0.5,0.72164,1,1,56669.8,63889.7,1696,0.51872432,7.0625811,311.65869,90.162598,43.9788,340.403,-5.06154,13.3069,30.5868,32.4768
1980-06-19 00:54:36,1,-4.75,4.06667,-0.666667,0.869067,1,1,56875.2,67026.3,1696,0.51873326,7.0625343,311.65588,90.163681,44.0448,339.253,-3.55982,13.1219,30.6422,33.2645
1980-06-19 00:55:17,1,-4.59167,4.29167,-0.941667,0.515388,1,1,56589.7,65077.9,1696,0.5187422,7.0624876,311.64914,90.164764,44.3871,339.977,-5.4659,12.1458,30.5652,32.7774
1980-06-19 00:55:57,1,-4.48333,4.51667,-0.833333,0.404145,1,1,58464.6,62071.5,1696,0.5187422,7.0624876,311.64523,90.164764,44.5891,339.269,-5.28111,10.763,31.0674,32.0113
1980-06-19 00:56:38,1,-4.91667,3.98333,-1.04167,0.677157,1,1,51714.1,62996.7,1696,0.51875114,7.0624409,311.63852,90.165848,42.5835,339.345,-4.15008,11.9629,29.2188,32.249
1980-06-19 00:57:18,1,-3.3,3.18462,-1.01538,0.698011,1,1,55629.6,63278.9,1696,0.51876009,7.0623941,311.63177,90.166931,44.461,340.716,-5.16981,10.488,30.3048,32.3212
1980-06-19 00:57:59,1,-3.48182,3.33636,-1.23636,1.33373,1,1,56746.5,58745.0,1696,0.51876009,7.0623941,311.62787,90.166931,44.0723,342.298,-5.44111,10.8059,30.6075,31.1418
1980-06-19 00:58:39,1,-4.18333,4.09167,-1.39167,0.475657,1,1,60313.5,60424.1,1696,0.51876903,7.0623474,311.62115,90.168015,45.533,342.546,-5.50398,11.3983,31.5548,31.5837
1980-06-19 00:59:20,1,-4.24545,3.36364,-1.14545,0.761577,1,1,59465.1,59891.4,1696,0.51877797,7.0623007,311.61832,90.169098,45.9537,343.283,-5.00876,10.6322,31.3321,31.4442
1980-06-19 01:00:00,1,-4.2,3.025,-1.025,0.929382,1,1,53404.2,61732.9,1696,0.51878691,7.0622549,311.6116,90.170197,45.4292,342.575,-5.19018,11.4361,29.6924,31.9239
1980-06-19 01:00:41,1,-4.45833,2.41667,-1.6,0.35424,1,1,49398.1,64907.2,1696,0.51878691,7.0622549,311.60379,90.170197,46.0494,343.974,-6.57821,10.6262,28.557,32.7344
1980-06-19 01:01:21,1,-3.6,3.10769,-0.869231,1.85134,1,1,51013.8,62066.9,1696,0.51879579,7.0622072,311.60095,90.171265,44.3874,343.75,-6.06314,10.8969,29.0203,32.0102
1980-06-19 01:02:02,1,-2.375,3.90833,0.2,0.615878,1,1,69645.9,60877.6,1696,0.51880473,7.0621605,311.59424,90.172348,46.2623,342.257,-5.24041,10.67,33.9083,31.702
1980-06-19 01:02:42,1,-1.70769,3.72308,0.861538,1.7012,1,1,68897.8,58010.7,1696,0.51880473,7.0621605,311.59033,90.172348,45.9695,342.075,-4.66881,10.5366,33.7257,30.9465
1980-06-19 01:03:23,1,0.236364,1.55455,-0.00909091,0.664818,1,1,66982.2,54330.5,1696,0.51881367,7.0621138,311.58359,90.173431,47.1942,340.999,-5.06579,10.9623,33.2535,29.9488
1980-06-19 01:04:03,1,0.133333,1.76667,-0.666667,1.37598,1,1,64345.9,58695.8,1696,0.51882261,7.062067,311.58078,90.174515,47.2245,340.252,-4.80142,11.5019,32.5926,31.1287
1980-06-19 01:04:44,1,-3.0,2.38182,0.281818,0.662826,1,1,53717.0,62233.7,1696,0.51882261,7.062067,311.57297,90.174515,47.2779,342.717,-5.29209,10.329,29.7793,32.0531
1980-06-19 01:05:24,1,-3.21667,4.05,0.633333,0.538,1,1,61777.6,53480.4,1696,0.51883155,7.0620193,311.56622,90.175598,45.8101,342.411,-5.89931,10.8197,31.9355,29.7136
1980-06-19 01:06:05,1,-3.39167,4.75,1.06667,0.398522,1,1,73728.5,57473.8,1696,0.51884049,7.0619726,311.56342,90.176682,45.3375,341.463,-4.65251,11.2633,34.888,30.803
1980-06-19 01:06:45,1,-3.69167,4.66667,1.06667,0.369966,1,1,72285.4,58700.2,1696,0.51884049,7.0619726,311.5556,90.176682,45.2917,340.876,-3.78205,11.2804,34.5448,31.1299
1980-06-19 01:07:26,1,-4.25,4.85833,0.3,0.334062,1,1,73108.0,59662.9,1696,0.51884943,7.0619259,311.55276,90.17775,45.034,340.389,-3.94992,10.1879,34.7408,31.3841
1980-06-19 01:08:06,1,-3.43333,4.53333,0.133333,0.389444,1,1,66482.6,58630.7,1696,0.51885837,7.0618792,311.54602,90.178833,46.3983,341.461,-3.84661,9.73513,33.1293,31.1115
1980-06-19 01:08:46,1,-3.54545,4.76364,-0.0363636,0.378776,1,1,70428.7,59410.1,1696,0.51885837,7.0618792,311.53821,90.178833,47.197,341.487,-4.86206,9.92674,34.0983,31.3176
1980-06-19 01:11:19,1,-2.0,3.61667,-1.575,0.63765,1,1,71750.2,62679.1,1696,0.5188852,7.061738,311.51804,90.182083,47.3289,342.196,-2.38677,8.80733,34.4167,32.1676
1980-06-19 01:11:29,1,-1.925,3.63333,-1.54167,0.676901,1,1,68761.3,64745.8,1696,0.51889592,7.0850239,311.46011,90.124176,47.2202,345.972,-1.94439,9.57296,33.6922,32.6937
1980-06-19 01:11:59,1,-1.66667,3.36667,-1.9,0.409607,1,1,65254.5,62512.2,1696,0.5188852,7.061738,311.51413,90.182083,46.8524,343.488,-2.30774,9.94928,32.8219,32.1248
1980-06-19 01:12:09,1,-1.81667,3.68333,-1.76667,0.43589,1,1,61285.7,59169.2,1696,0.51889414,7.0616913,311.51129,90.183167,45.5446,343.535,-3.37375,11.6389,31.8081,31.254
1980-06-19 01:12:50,1,-2.45,4.21667,-1.16667,0.373423,1,1,65502.0,59530.6,1696,0.51889414,7.0616913,311.50739,90.183167,46.2024,341.743,-2.42935,10.7628,32.884,31.3493
1980-06-19 01:13:30,1,-2.83333,3.875,-0.2,0.52035,1,1,60966.0,57972.4,1696,0.51890302,7.0616436,311.50064,90.184235,45.2993,342.731,-2.33597,11.4956,31.725,30.9363
1980-06-19 01:14:10,1,-2.625,3.49167,0.0333333,0.477697,1,1,65482.1,61435.9,1696,0.51891196,7.0615969,311.49783,90.185318,47.6563,342.154,-2.68565,12.0548,32.879,31.847
1980-06-19 01:57:22,-1,nan,nan,nan,nan,1,3,nan,nan,1696,0.51930577,7.0828462,311.08771,90.173645,nan,341.018,-1.94345,10.908,nan,nan
1980-06-19 01:57:53,1,-5.7125,3.2,-3.65,0.852111,1,1,48238.8,50392.6,1696,0.51929623,7.059577,311.14197,90.231796,43.114,341.515,1.22596,9.67604,28.2199,28.8431
1980-06-19 01:58:02,1,-5.58,3.91,-3.63,1.25324,1,1,66287.2,47681.8,1696,0.51930517,7.0595303,311.13913,90.23288,50.1989,306.341,45.0877,6.9882,33.0805,28.0566
1980-06-19 01:58:43,1,-3.93636,7.28182,-3.01818,0.376368,1,1,94062.7,59049.3,1696,0.51930517,7.0595303,311.13522,90.23288,45.3024,337.305,4.86918,7.02881,39.4064,31.2223
1980-06-19 02:00:05,-1,nan,nan,nan,nan,1,3,nan,nan,1696,0.51932305,7.0594368,311.12567,90.235046,nan,339.725,4.40733,5.39181,nan,nan
1980-06-19 02:00:45,1,-3.46667,7.2,-2.40833,0.946741,1,1,85668.2,54226.2,1696,0.51932305,7.0594368,311.11786,90.235046,44.7378,337.514,5.00374,8.41486,37.6069,29.9201
1980-06-19 02:01:26,1,-5.00909,7.18182,-1.78182,0.376807,1,1,87535.0,57344.9,1696,0.51933193,7.0593891,311.11111,90.236115,43.9679,336.486,5.16122,10.3527,38.0145,30.7684
1980-06-19 02:02:47,1,-3.39091,1.52727,-0.409091,1.00905,1,1,56926.4,68578.1,1696,0.51934087,7.0593414,311.10049,90.237198,46.4,340.423,-3.09267,9.33441,30.6559,33.6473
1980-06-19 02:03:27,1,-3.63333,2.51667,-0.958333,0.556215,1,1,48864.9,61633.4,1696,0.51934981,7.0592947,311.09766,90.238266,44.5205,343.603,0.0786711,7.4876,28.4025,31.8982
1980-06-19 02:04:08,1,-2.675,0.925,-0.608333,0.489402,1,1,45799.2,55638.1,1696,0.51935875,7.059247,311.09091,90.239349,46.7239,342.523,1.52224,7.67187,27.4971,30.3071
1980-06-19 02:05:29,1,-1.05,1.675,-2.0,0.24367,1,1,49138.3,49545.4,1696,0.51936769,7.0592003,311.08026,90.240417,47.3998,345.565,2.45512,5.8087,28.4818,28.5996
1980-06-19 02:06:09,1,-2.90833,1.425,-0.7,0.847136,1,1,41448.8,53847.8,1696,0.51937664,7.0591526,311.07355,90.241501,45.8476,340.821,-0.949787,10.2131,26.1586,29.8155
1980-06-19 02:06:50,1,-3.95833,2.6,-0.533333,0.519281,1,1,53023.1,64473.2,1696,0.51937664,7.0591526,311.06964,90.241501,45.8606,338.806,-0.944273,10.0852,29.5863,32.6248
1980-06-19 02:07:30,1,-4.23333,1.975,-0.733333,0.328612,1,1,53614.9,62632.2,1696,0.51938558,7.0591059,311.0629,90.242584,45.0586,339.326,-2.23604,8.76036,29.7509,32.1556
1980-06-19 02:08:11,1,-5.36364,2.88182,-0.263636,0.974552,1,1,55524.4,61085.6,1696,0.51939446,7.0590582,311.06006,90.243652,42.3502,335.488,-1.21238,9.96974,30.2761,31.7561
1980-06-19 02:08:51,1,-4.66667,2.6,-0.933333,0.371184,1,1,44537.7,64078.2,1696,0.51939452,7.0590582,311.05225,90.243652,43.1333,335.149,0.651957,10.5349,27.1158,32.5247
1980-06-19 02:09:32,1,-3.69091,2.83636,-1.46364,0.35162,1,1,53005.4,60839.3,1696,0.5194034,7.0590115,311.04553,90.244736,44.4262,337.54,-0.842983,9.25251,29.5814,31.692
1980-06-19 02:10:12,1,-4.48333,6.48333,-1.56667,0.932738,1,1,66908.7,63600.8,1696,0.51941234,7.0589638,311.04269,90.245804,41.2838,333.516,9.37534,6.26506,33.2353,32.4033
1980-06-19 02:10:53,1,-3.97273,7.87273,-1.56364,0.608208,1,1,72558.1,58251.5,1696,0.51941234,7.0589638,311.03488,90.245804,38.4283,335.583,13.7382,9.04978,34.6099,31.0107
1980-06-19 02:12:14,1,-2.85455,7.3,-2.32727,0.545151,1,1,90426.5,55291.0,1696,0.51943022,7.0588694,311.02533,90.247971,45.56,339.211,6.97315,7.7198,38.6372,30.2124
1980-06-19 02:12:54,1,-3.41667,7.36667,-2.6,0.641829,1,1,84023.2,51942.8,1696,0.51943022,7.0588694,311.01752,90.247971,44.7867,340.301,5.22664,5.87281,37.2441,29.2833
1980-06-19 02:14:15,1,-3.75,7.44167,-3.65833,0.262731,1,1,85123.4,52225.9,1696,0.5194481,7.0587749,311.00793,90.250122,43.4666,339.464,7.64421,2.64095,37.4871,29.363
1980-06-19 02:14:56,1,-3.59091,7.41818,-3.4,0.687912,1,1,86935.0,56387.8,1696,0.5194481,7.0587749,311.00403,90.250122,45.9719,340.796,6.44113,2.6452,37.884,30.5106
1980-06-19 02:15:36,1,-3.91667,7.525,-3.00833,0.740964,1,1,80033.8,54893.7,1696,0.51945704,7.0587282,310.99728,90.25119,45.0663,339.117,8.21934,4.42549,36.3492,30.1036
1980-06-19 02:17:38,1,-3.69167,5.93333,-2.675,0.733617,1,1,80466.5,58857.7,1696,0.51947486,7.0586329,310.97992,90.253342,42.7556,341.536,5.25754,6.78739,36.4473,31.1716
1980-06-19 02:18:18,1,-2.40833,6.91667,-2.69167,0.657964,1,1,86123.2,61478.2,1696,0.5194838,7.0585861,310.97708,90.254425,43.0301,341.294,9.30658,6.33049,37.7066,31.858
1980-06-19 02:18:59,1,-3.06364,6.32727,-2.44545,0.540584,1,1,86184.9,59000.9,1696,0.5194838,7.0585861,310.96927,90.254425,43.5761,340.611,8.26106,7.81937,37.7202,31.2095
1980-06-19 02:19:39,1,-3.33333,6.85,-2.2,1.17603,1,1,93481.7,52426.8,1696,0.51949275,7.0585384,310.96646,90.255508,41.8803,338.542,11.0943,7.73453,39.2845,29.4195
1980-06-19 02:20:20,1,-3.39091,6.98182,-2.35455,0.848138,1,1,85573.2,59631.2,1696,0.51950169,7.0584917,310.95972,90.256577,43.9084,340.883,7.81715,6.4752,37.586,31.3758
1980-06-19 02:21:00,1,-3.0,7.63333,-3.03333,0.527046,1,1,86815.0,54569.7,1696,0.51951063,7.058444,310.95297,90.25766,44.4552,341.553,8.85904,4.41249,37.8578,30.0147
1980-06-19 02:21:41,1,-3.375,8.175,-2.73333,0.459317,1,1,86494.7,54069.4,1696,0.51951063,7.058444,310.94907,90.25766,42.4402,340.486,11.096,4.20312,37.7879,29.8768
1980-06-19 02:22:21,1,-2.26154,7.70769,-3.20769,0.468158,1,1,93423.0,60700.8,1696,0.51951957,7.0583973,310.94232,90.258728,44.7449,339.76,9.98051,6.28559,39.2722,31.6559
1980-06-19 02:23:02,1,-3.55,7.075,-4.25833,0.632565,1,1,98128.7,56717.3,1696,0.51952845,7.0583496,310.93951,90.259811,44.9717,339.775,6.17379,3.75906,40.2491,30.5996